sat.trackr.live / text

‹ back to catalog

ONEWEB-0527

NORAD 54642 · 2022-166A

PAYLOAD ACTIVE UNKNOWN

§ Identity

Operator
Country
UK
Launch date
2022-12-08
Launch site
AFETR
Launch vehicle
Mass (kg)
RCS (m²)

Purposes: comms

External: N2YO · Heavens-Above · Gunter

§ Orbital elements

Epoch: 2026-09-20T04:12:55.200096Z

Period
108.94 min
Inclination
87.9277°
Eccentricity
0.0002054
Mean motion
13.21826716 rev/d
Perigee alt
1,176.2 km
Apogee alt
1,179.3 km
Semi-major
7,555.9 km
B*
2.0811e-4
RAAN
225.0876°
Arg perigee
78.3138°
Mean anomaly
281.8226°
Rev number
18,408

§ Raw data

ONEWEB-05271 54642U 22166A   26263.17563889  .00000099  00000+0  20811-3 0  99962 54642  87.9277 225.0876 0002054  78.3138 281.8226 13.21826716184081

JSON: /api/v1/satellites/54642 · /tle

For live sub-satellite position, see the globe view (requires WebGL).

§ Visibility from observer

Set your observer location to see the next 7 days of passes ≥ 10°. The values pass through the URL so the page stays shareable.

No JS? Fill the form by hand. The geolocation button needs JavaScript.